Location: Newark
(26.1997°N, 131.3000°E)
Time: 13:15:11
(UTC+00:00)

N. Korean satellite - Visible Passes

Search period start: 12 November 2019 00:00
Search period end: 22 November 2019 00:00
Orbit: 456 x 506 km, 97.2° (Epoch: 12 November)

Date Brightness Start Highest point End Pass type
(mag) Time Alt. Az. Time Alt. Az. Time Alt. Az.
12 Nov 9.8 20:15:20 10° NE 20:17:56 18° E 20:20:30 10° SE visible
14 Nov 10.0 09:24:39 10° SW 09:26:36 14° W 09:28:35 10° WNW visible
14 Nov 6.7 20:56:54 10° NNE 21:00:36 82° ESE 21:04:15 10° S visible
15 Nov 8.6 08:57:56 10° SSW 09:01:09 33° W 09:04:26 10° NNW visible
15 Nov 8.7 20:31:54 10° NNE 20:35:14 32° E 20:38:30 10° SSE visible
16 Nov 10.0 20:07:49 10° ENE 20:09:46 14° E 20:11:42 10° SE visible
18 Nov 9.8 09:15:51 10° SW 09:18:25 19° W 09:21:01 10° NW visible
18 Nov 7.2 20:48:50 10° NNE 20:52:28 60° E 20:56:02 10° S visible
19 Nov 8.0 08:49:33 10° S 08:52:58 44° W 08:56:28 10° NNW visible
19 Nov 9.2 20:24:02 10° NE 20:27:03 24° E 20:30:01 10° SSE visible
20 Nov 10.3 20:00:54 10° E 20:01:33 10° E 20:02:11 10° ESE visible
21 Nov 10.4 09:35:00 10° WSW 09:35:41 10° W 09:36:23 10° W visible
21 Nov 6.5 21:06:00 10° N 21:09:38 70° WNW 21:13:12 10° SSW visible
